Location: Hall+in+Tirol
(47.2830°N, 11.5170°E)
Time: 02:17:22
(UTC+02:00)

Gurwin Techsat 1B - Visible Passes

Search period start: 27 April 2015 00:00
Search period end: 07 May 2015 00:00
Orbit: 812 x 815 km, 98.5° (Epoch: 26 April)

Date Brightness Start Highest point End Pass type
(mag) Time Alt. Az. Time Alt. Az. Time Alt. Az.
27 Apr 11.0 02:26:28 10° ENE 02:29:00 14° E 02:31:48 10° ESE visible
27 Apr 8.6 04:04:28 10° NNE 04:09:49 88° WNW 04:13:13 23° SSW visible
28 Apr 9.0 03:41:47 10° NNE 03:47:04 61° E 03:50:18 23° S visible
28 Apr 10.0 05:22:33 10° N 05:26:40 23° WNW 05:30:41 10° WSW visible
29 Apr 9.7 03:19:15 10° NNE 03:24:13 39° E 03:27:23 20° SSE visible
29 Apr 9.5 04:59:24 10° N 05:04:09 33° WNW 05:08:37 11° SW visible
30 Apr 10.3 02:56:56 10° NE 03:01:16 26° E 03:04:28 15° SE visible
30 Apr 9.0 04:36:26 10° N 04:41:33 49° WNW 04:45:42 15° SW visible
01 May 10.9 02:34:58 10° NE 02:38:14 17° E 02:41:33 10° SE visible
01 May 8.6 04:13:34 10° N 04:18:54 75° WNW 04:22:46 19° SSW visible
02 May 11.2 02:14:36 10° ENE 02:15:05 10° E 02:15:55 10° E visible
02 May 8.8 03:50:50 10° NNE 03:56:09 73° ESE 03:59:51 20° S visible
03 May 9.4 03:28:14 10° NNE 03:33:21 47° E 03:36:55 19° SSE visible
03 May 9.7 05:08:38 10° N 05:13:09 28° WNW 05:17:34 10° WSW visible
04 May 10.1 03:05:48 10° NNE 03:10:27 31° E 03:14:00 16° SSE visible
04 May 9.2 04:45:35 10° N 04:50:34 42° WNW 04:55:13 12° SW visible
05 May 10.7 02:43:39 10° NE 02:47:27 20° E 02:51:04 11° SE visible
05 May 8.7 04:22:40 10° N 04:27:57 63° WNW 04:32:17 15° SSW visible
06 May 11.0 02:22:11 10° ENE 02:24:20 13° E 02:26:47 10° ESE visible
06 May 8.6 03:59:53 10° NNE 04:05:14 86° ESE 04:09:21 17° SSW visible
